Weather History for KPTK - April, 2013

Change the Weather History Date:

Tuesday, April 9, 2013

  Actual Average Record
Temperature  
Mean Temperature 42 °F -  
Max Temperature 46 °F 53 °F 64 °F (2015)
Min Temperature 39 °F 34 °F 17 °F (1997)
Degree Days  
Heating Degree Days 22    
Moisture  
Dew Point 42 °F    
Average Humidity 93    
Maximum Humidity 100    
Minimum Humidity 74    
Precipitation  
Precipitation 1.30 in - - ()
Sea Level Pressure  
Sea Level Pressure 29.98 in    
Wind  
Wind Speed 9 mph (NE)    
Max Wind Speed 15 mph    
Max Gust Speed 25 mph    
Visibility 4 miles    
Events Rain , Thunderstorm    
Averages and records for this station are not official NWS values.
T = Trace of Precipitation, MM = Missing Value Source: NWS Daily Summary

Daily Weather History Graph

Daily Weather History Graph

Search for Another Location

Airport or City:

Trip Planner

Search our weather history database for the weather conditions in past years. The results will help you decide how hot, cold, wet, or windy it might be!

Date:

Astronomy

Apr. 09, 2013 Rise Set
Actual Time 7:01 AM EDT 8:09 PM EDT
Civil Twilight 6:32 AM EDT 8:38 PM EDT
Nautical Twilight 5:58 AM EDT 9:12 PM EDT
Astronomical Twilight 5:22 AM EDT 9:49 PM EDT
Moon 6:24 AM EDT (4/9) 7:43 PM EDT (4/9)
Length of Visible Light 14h 05m
Length of Day
13h 07m
Waning Crescent, 1% of the Moon is Illuminated
Apr 9
Waning Crescent
Apr 10
New
Apr 18
First Quarter
Apr 25
Full
May 2
Last Quarter

Hourly Weather History & Observations

Time (EDT) Temp. Windchill Dew Point Humidity Pressure Visibility Wind Dir Wind Speed Gust Speed Precip Events Conditions
12:12 AM 46.4 °F 40.1 °F 41.0 °F 81% 29.96 in 10.0 mi WNW 15.0 mph 25.3 mph N/A   Overcast
12:53 AM 45.0 °F 38.2 °F 41.0 °F 86% 29.99 in 9.0 mi NW 15.0 mph 21.9 mph N/A   Overcast
1:07 AM 44.6 °F 37.8 °F 42.8 °F 93% 29.99 in 7.0 mi WNW 15.0 mph 19.6 mph N/A   Overcast
1:53 AM 45.0 °F 39.3 °F 41.0 °F 86% 30.03 in 9.0 mi NW 11.5 mph - N/A   Overcast
2:53 AM 43.0 °F 36.4 °F 39.9 °F 89% 30.04 in 10.0 mi North 12.7 mph - N/A   Overcast
3:53 AM 41.0 °F 35.8 °F 39.0 °F 93% 30.04 in 10.0 mi NNW 8.1 mph - N/A   Overcast
4:53 AM 39.9 °F 36.7 °F 37.9 °F 93% 30.06 in 9.0 mi North 4.6 mph - N/A   Overcast
5:24 AM 39.2 °F 35.9 °F 37.4 °F 93% 30.04 in 8.0 mi North 4.6 mph - N/A   Overcast
5:53 AM 39.0 °F - 39.0 °F 100% 30.07 in 5.0 mi Calm Calm - N/A   Overcast
6:53 AM 39.0 °F - 37.9 °F 96% 30.09 in 5.0 mi Calm Calm - N/A   Overcast
7:27 AM 39.2 °F 37.0 °F 37.4 °F 93% 30.07 in 1.5 mi ESE 3.5 mph - N/A   Overcast
7:53 AM 39.0 °F 34.8 °F 37.9 °F 96% 30.09 in 1.5 mi East 5.8 mph - N/A   Overcast
8:46 AM 41.0 °F 36.4 °F 39.2 °F 93% 30.08 in 3.0 mi East 6.9 mph - N/A   Overcast
8:53 AM 41.0 °F 36.4 °F 39.0 °F 93% 30.09 in 3.0 mi East 6.9 mph - N/A   Overcast
9:25 AM 41.0 °F 34.7 °F 39.2 °F 93% 30.06 in 6.0 mi SE 10.4 mph - N/A   Overcast
9:53 AM 42.1 °F 37.1 °F 39.0 °F 89% 30.08 in 5.0 mi SE 8.1 mph - N/A   Overcast
10:53 AM 46.0 °F 41.0 °F 39.0 °F 76% 30.07 in 6.0 mi SE 10.4 mph - N/A   Haze
11:02 AM 46.4 °F 40.7 °F 39.2 °F 76% 30.06 in 7.0 mi SSE 12.7 mph - N/A   Mostly Cloudy
11:53 AM 46.9 °F - 39.0 °F 74% 30.08 in 7.0 mi SSE 12.7 mph - N/A   Overcast
12:53 PM 46.0 °F 41.9 °F 41.0 °F 83% 30.03 in 5.0 mi SE 8.1 mph - 0.02 in Rain Light Rain
1:35 PM 44.6 °F 41.4 °F 41.0 °F 87% 30.00 in 4.0 mi ESE 5.8 mph - 0.01 in Rain Light Rain
1:49 PM 44.6 °F 41.4 °F 42.8 °F 93% 29.99 in 3.0 mi ENE 5.8 mph - 0.03 in Rain Light Rain
1:53 PM 45.0 °F 41.2 °F 42.1 °F 90% 30.00 in 3.0 mi ENE 6.9 mph - 0.03 in Rain Light Rain
2:11 PM 44.6 °F 40.2 °F 42.8 °F 93% 29.97 in 3.0 mi East 8.1 mph - 0.00 in   Overcast
2:48 PM 44.6 °F 39.7 °F 42.8 °F 93% 29.93 in 5.0 mi East 9.2 mph - 0.00 in   Mostly Cloudy
2:53 PM 45.0 °F 40.6 °F 43.0 °F 93% 29.95 in 5.0 mi East 8.1 mph - 0.00 in   Mostly Cloudy
3:24 PM 44.6 °F 39.2 °F 42.8 °F 93% 29.92 in 6.0 mi SE 10.4 mph - N/A   Overcast
3:53 PM 45.0 °F 42.6 °F 42.1 °F 90% 29.94 in 6.0 mi East 4.6 mph - N/A   Mostly Cloudy
4:27 PM 46.4 °F 45.2 °F 42.8 °F 87% 29.93 in 7.0 mi North 3.5 mph - N/A   Mostly Cloudy
4:53 PM 46.0 °F 42.5 °F 43.0 °F 89% 29.93 in 6.0 mi Variable 6.9 mph - N/A   Overcast
5:48 PM 44.6 °F 40.2 °F 42.8 °F 93% 29.89 in 1.8 mi ENE 8.1 mph - 0.05 in Rain Heavy Rain
5:51 PM 44.6 °F 40.2 °F 42.8 °F 93% 29.89 in 2.5 mi East 8.1 mph - 0.05 in Rain Light Rain
5:53 PM 45.0 °F 41.2 °F 43.0 °F 93% 29.91 in 2.5 mi East 6.9 mph - 0.06 in Rain Light Rain
6:01 PM 44.6 °F 40.7 °F 42.8 °F 93% 29.89 in 2.5 mi East 6.9 mph - 0.01 in Rain Rain
6:16 PM 44.6 °F 41.4 °F 42.8 °F 93% 29.88 in 3.0 mi East 5.8 mph - 0.02 in Rain Light Rain
6:27 PM 44.6 °F 41.4 °F 42.8 °F 93% 29.89 in 3.0 mi ENE 5.8 mph - 0.02 in   Overcast
6:53 PM 45.0 °F 42.6 °F 43.0 °F 93% 29.92 in 3.0 mi East 4.6 mph - 0.02 in   Overcast
7:06 PM 44.6 °F - 42.8 °F 93% 29.91 in 2.0 mi Calm Calm - 0.01 in Rain Light Rain
7:53 PM 45.0 °F 42.6 °F 44.1 °F 97% 29.92 in 2.5 mi NNE 4.6 mph - 0.03 in   Overcast
8:00 PM 44.6 °F 42.2 °F 44.6 °F 100% 29.89 in 2.5 mi East 4.6 mph - N/A   Overcast
8:24 PM 44.6 °F 43.1 °F 44.6 °F 100% 29.89 in 2.5 mi ENE 3.5 mph - N/A   Overcast
8:45 PM 44.6 °F 38.8 °F 44.6 °F 100% 29.94 in 3.0 mi NNW 11.5 mph - 0.02 in Rain , Thunderstorm Light Thunderstorms and Rain
8:50 PM 44.6 °F 41.4 °F 44.6 °F 100% 29.92 in 1.8 mi ENE 5.8 mph - 0.08 in Rain , Thunderstorm Thunderstorms and Rain
8:53 PM 45.0 °F 41.8 °F 45.0 °F 100% 29.94 in 1.8 mi NE 5.8 mph - 0.12 in Rain , Thunderstorm Heavy Thunderstorms and Rain
9:09 PM 44.6 °F 40.2 °F 44.6 °F 100% 29.91 in 1.5 mi SE 8.1 mph - 0.20 in Rain , Thunderstorm Light Thunderstorms and Rain
9:17 PM 46.4 °F 44.3 °F 44.6 °F 93% 29.97 in 2.0 mi WNW 4.6 mph - 0.21 in Rain , Thunderstorm Light Thunderstorms and Rain
9:42 PM 46.4 °F 41.1 °F 44.6 °F 93% 29.95 in 2.5 mi North 11.5 mph - 0.33 in Rain , Thunderstorm Heavy Thunderstorms and Rain
9:46 PM 46.4 °F 41.9 °F 44.6 °F 93% 29.94 in 1.5 mi NNE 9.2 mph - 0.35 in Rain , Thunderstorm Heavy Thunderstorms and Rain
9:53 PM 46.0 °F 39.9 °F 45.0 °F 96% 29.95 in 1.8 mi NNE 13.8 mph 18.4 mph 0.44 in Rain , Thunderstorm Heavy Thunderstorms and Rain
10:00 PM 46.4 °F 40.4 °F 44.6 °F 93% 29.94 in 0.8 mi NNE 13.8 mph - 0.17 in Rain , Thunderstorm Heavy Thunderstorms and Rain
10:11 PM 44.6 °F 40.7 °F 44.6 °F 100% 29.96 in 2.5 mi Variable 6.9 mph 16.1 mph N/A Rain , Thunderstorm Thunderstorms and Rain
10:13 PM 44.6 °F 43.1 °F 44.6 °F 100% 29.96 in 0.8 mi NNW 3.5 mph 16.1 mph 0.33 in Rain , Thunderstorm Heavy Thunderstorms and Rain
10:21 PM 44.6 °F 42.2 °F 44.6 °F 100% 29.97 in 0.8 mi NNW 4.6 mph - 0.49 in Rain , Thunderstorm Heavy Thunderstorms and Rain
10:25 PM 44.6 °F 40.2 °F 44.6 °F 100% 29.95 in 1.8 mi North 8.1 mph - 0.53 in Rain , Thunderstorm Heavy Thunderstorms and Rain
10:28 PM 44.6 °F 39.7 °F 44.6 °F 100% 29.95 in 2.5 mi NNE 9.2 mph - 0.54 in Rain Heavy Rain
10:36 PM 44.6 °F 41.4 °F 44.6 °F 100% 29.96 in 3.0 mi NNE 5.8 mph - 0.56 in Rain Rain
10:44 PM 44.6 °F 39.7 °F 44.6 °F 100% 29.96 in 4.0 mi North 9.2 mph - 0.57 in Rain Light Rain
10:53 PM 45.0 °F 39.7 °F 44.1 °F 97% 29.97 in 5.0 mi NNE 10.4 mph - 0.57 in Rain Light Rain
11:53 PM 42.1 °F 37.1 °F 39.9 °F 92% 30.00 in 10.0 mi NNE 8.1 mph - 0.01 in   Overcast